THOR ABLESTAR DEB, 420

Orbit data source: Space-Track

THOR ABLESTAR DEB, 420 is space debris in LEO originally from a launch on Thu, 29 Jun 1961 UTC launched from the Air Force Eastern Test Range (AFETR). Debris objects in space refer to the collection of defunct objects orbiting the Earth. Examples of debris include non-operational satellites, rocket bodies, and fragments generated from explosions, collisions, or faulty payload assembly.

Loading next visibility...
Identifier
420, 1961-015EV
Orbit
LEO
Country
Flag of USUS
Related business
Manufacturer
Unknown
Mission
Spacecraft
Bus & Motor
Unknown
Mass
Unknown
Launch date (UTC)
1961-06-29 (65 years ago)
Launch vehicle
Unknown
Launch site
Air Force Eastern Test Range (AFETR)
Object type
Payload
Rocket body
Debris
Shape & HBR
Unknown shape, 0.1 m
Radar Cross Section
Medium (>0.1 m² and <1 m²)

Expand to show TLE details & history
Last TLE update: 5 days ago

TLE from 5 days ago
0 THOR ABLESTAR DEB
1 00420U 61015EV  26154.53098627  .00001065  00000-0  39395-3 0  9991
2 00420  66.8134 312.7448 0087640 222.6540 136.7736 14.34061303351626
Epoch: 2026-06-03T12:44Z
TLE epoch observation values (Epoch: 2026-06-03T12:44:37.213Z)
Latitude
0.00004°
Longitude
-130.39851°
Altitude
826.268 km
Speed
7.416 km/s
True Right ascension
20h 50m 58s
True Declination
0° 00' 00"
Sunlit
Object was in daylight at epoch
Visualization orbit readout
Latitude
Unknown
Longitude
Unknown
Altitude
Unknown
Speed
Unknown
Apparent Right ascension
Unknown
Apparent Declination
Unknown
Sunlit
N/A
Visualization observer readout
Local Sidereal Time
11:42:46
Azimuth
Unknown
Elevation
Unknown
Doppler factor
Unknown
Orbital elements
Apogee altitude
839.25 km
Perigee altitude
713.842 km
Semi-major axis
7,154.683 km
Eccentricity
0.00876
Inclination
66.8134°
RAAN
312.7448°
Arg. of periapsis
222.654°
True anomaly
137.45595°
Mean anomaly
136.7736°
Eccentric anomaly
137.11532°
Mean motion
3.58639 °/min
Orbital period
100.38 mins
BSTAR
0.00039395
Loading maneuver chart data...
Computing Atmospheric mass density...
Loading historical data...
Loading historical data...
Loading historical data...
Loading historical data...
Loading historical data...
Loading historical data...
Loading historical data...

Documentation

Showing up to 5 results
|